Date,TemperatureHighF,TemperatureAvgF,TemperatureLowF,DewpointHighF,DewpointAvgF,DewpointLowF,HumidityHigh,HumidityAvg,HumidityLow,PressureMaxIn,PressureMinIn,WindSpeedMaxMPH,WindSpeedAvgMPH,GustSpeedMaxMPH,PrecipitationSumIn
2013-1-1,36.0,18.6,9.0,20.0,13.2,6.0,91,80,51,0.00,40.00,7,3,11,0.00
2013-1-2,36.0,17.0,5.0,20.0,10.4,1.0,91,76,52,0.00,40.00,10,7,16,0.00
2013-1-3,31.0,17.1,6.0,17.0,11.0,3.0,93,78,55,0.00,40.00,10,5,16,0.00
2013-1-4,34.0,19.6,9.0,20.0,13.9,5.0,94,80,53,0.00,40.00,8,4,10,0.00
2013-1-5,29.0,22.5,16.0,26.0,19.6,13.0,97,88,74,0.00,40.00,5,3,8,0.00
2013-1-6,32.0,27.3,26.0,29.0,26.4,25.0,99,96,90,0.00,40.00,7,3,11,0.10
2013-1-7,40.0,32.2,26.0,36.0,31.2,25.0,99,96,81,0.00,40.00,7,4,11,0.04
2013-1-8,46.0,36.3,30.0,34.0,32.0,29.0,99,85,62,0.00,40.00,9,4,14,0.04
2013-1-9,39.0,30.7,22.0,32.0,26.4,16.0,99,84,71,0.00,40.00,16,7,30,0.02
2013-1-10,31.0,22.8,18.0,22.0,17.3,14.0,94,80,58,0.00,40.00,14,5,22,0.01
2013-1-11,30.0,21.4,9.0,18.0,11.8,3.0,92,68,33,0.00,40.00,15,6,22,0.02
2013-1-12,20.0,7.4,-3.0,7.0,1.1,-8.0,85,76,54,0.00,40.00,6,4,9,0.01
2013-1-13,29.0,8.3,-6.0,7.0,-1.7,-12.0,81,65,38,0.00,40.00,7,4,10,0.00
2013-1-14,27.0,11.9,-1.0,8.0,1.8,-6.0,79,65,41,0.00,40.00,8,4,12,0.00
2013-1-15,35.0,18.9,5.0,14.0,7.6,1.0,82,63,38,0.00,40.00,8,4,10,0.00
2013-1-16,39.0,21.9,7.0,17.0,12.0,4.0,88,67,39,0.00,40.00,7,4,11,0.00
2013-1-17,40.0,24.9,12.0,20.0,14.2,9.0,87,66,42,0.00,40.00,7,5,11,0.00
2013-1-18,44.0,25.9,11.0,20.0,14.1,8.0,87,63,38,0.00,40.00,8,4,13,0.00
2013-1-19,46.0,26.8,11.0,20.0,12.9,8.0,86,59,33,0.00,40.00,9,5,15,0.00
2013-1-20,46.0,24.8,11.0,18.0,10.3,5.0,79,57,31,0.00,40.00,10,6,15,0.00
2013-1-21,44.0,25.3,11.0,19.0,9.8,5.0,77,54,32,0.00,40.00,9,5,13,0.00
2013-1-22,41.0,27.0,15.0,18.0,12.9,8.0,75,56,39,0.00,40.00,6,4,10,0.00
2013-1-23,46.0,38.2,30.0,35.0,24.8,14.0,99,62,38,0.00,40.00,13,6,31,0.23
2013-1-24,45.0,37.4,34.0,38.0,35.9,34.0,100,95,74,0.00,40.00,6,3,11,0.14
2013-1-25,40.0,36.5,34.0,39.0,36.1,34.0,100,99,94,0.00,40.00,8,4,14,0.29
2013-1-26,40.0,33.2,25.0,37.0,25.9,19.0,99,76,52,0.00,40.00,14,7,22,0.06
2013-1-27,37.0,27.5,19.0,24.0,20.8,17.0,94,76,52,0.00,40.00,9,5,16,0.01
2013-1-28,35.0,30.6,26.0,26.0,23.2,21.0,93,74,62,0.00,40.00,12,7,24,0.01
2013-1-29,41.0,34.5,31.0,29.0,26.2,23.0,91,72,58,0.00,40.00,18,7,24,0.00
2013-1-30,47.0,34.6,26.0,30.0,27.3,25.0,97,77,50,0.00,40.00,5,3,10,0.00
2013-1-31,47.0,33.2,21.0,31.0,26.5,20.0,96,78,54,0.00,40.00,5,3,7,0.00
2013-2-1,48.0,32.8,20.0,30.0,24.1,19.0,95,73,46,0.00,40.00,6,4,8,0.01
2013-2-2,46.0,31.9,24.0,29.0,24.3,21.0,88,75,51,0.00,40.00,8,4,13,0.01
2013-2-3,48.0,33.2,21.0,27.0,24.5,20.0,95,72,44,0.00,40.00,6,4,11,0.00
2013-2-4,48.0,36.0,27.0,29.0,26.0,23.0,87,68,47,0.00,40.00,6,3,9,0.00
2013-2-5,43.0,35.0,30.0,32.0,26.7,24.0,89,72,47,0.00,40.00,12,5,21,0.00
2013-2-6,44.0,33.8,28.0,27.0,25.7,23.0,92,73,43,0.00,40.00,8,4,15,0.00
2013-2-7,41.0,31.9,25.0,27.0,21.4,15.0,91,67,41,0.00,40.00,10,5,18,0.00
2013-2-8,39.0,28.1,19.0,20.0,16.2,9.0,92,64,29,0.00,40.00,11,6,24,0.00
2013-2-9,43.0,28.1,14.0,25.0,17.6,11.0,87,67,40,0.00,40.00,8,4,12,0.00
2013-2-10,46.0,33.8,23.0,24.0,19.9,16.0,92,60,35,0.00,40.00,11,5,19,0.01
2013-2-11,49.0,33.1,18.0,29.0,20.4,15.0,87,62,33,0.00,40.00,14,5,22,0.01
2013-2-12,49.0,33.4,24.0,28.0,25.0,22.0,95,74,37,0.00,40.00,7,4,12,0.00
2013-2-13,51.0,36.0,25.0,31.0,26.8,23.0,93,72,41,0.00,40.00,9,4,15,0.00
2013-2-14,52.0,36.6,25.0,32.0,27.7,24.0,97,73,42,0.00,40.00,7,5,11,0.00
2013-2-15,54.0,38.8,25.0,30.0,26.4,23.0,94,65,36,0.00,40.00,7,4,10,0.00
2013-2-16,53.0,35.6,24.0,30.0,24.5,16.0,94,67,38,0.00,40.00,12,6,21,0.00
2013-2-17,43.0,29.9,17.0,22.0,16.0,8.0,92,60,27,0.00,40.00,7,3,11,0.00
2013-2-18,41.0,29.6,23.0,25.0,18.6,12.0,95,65,40,0.00,40.00,15,4,23,0.00
2013-2-19,31.0,26.5,21.0,27.0,23.2,18.0,93,87,80,0.00,40.00,7,4,17,0.03
2013-2-20,40.0,26.8,16.0,23.0,19.5,13.0,95,75,44,0.00,40.00,8,4,17,0.06
2013-2-21,36.0,27.9,18.0,24.0,20.4,16.0,90,74,51,0.00,40.00,10,5,19,0.01
2013-2-22,46.0,31.7,25.0,33.0,26.1,22.0,98,81,50,0.00,40.00,18,7,33,0.12
2013-2-23,34.0,27.1,20.0,25.0,20.7,16.0,94,77,61,0.00,40.00,14,7,23,0.18
2013-2-24,41.0,26.4,13.0,25.0,18.2,10.0,93,73,47,0.00,40.00,7,4,12,0.01
2013-2-25,39.0,31.0,26.0,31.0,21.9,16.0,98,70,41,0.00,40.00,14,8,25,0.02
2013-2-26,42.0,28.0,16.0,21.0,17.5,14.0,91,67,41,0.00,40.00,8,4,13,0.01
2013-2-27,49.0,32.5,20.0,31.0,21.3,16.0,86,65,37,0.00,40.00,8,4,14,0.00
2013-2-28,47.0,40.9,36.0,41.0,36.9,31.0,100,86,75,0.00,40.00,8,5,14,0.04
2013-3-1,53.0,39.5,32.0,40.0,36.4,31.0,100,90,58,0.00,40.00,6,2,11,0.01
2013-3-2,49.0,37.9,28.0,37.0,31.3,22.0,99,79,42,0.00,40.00,5,3,11,0.01
2013-3-3,49.0,39.0,30.0,32.0,27.3,16.0,89,65,41,0.00,40.00,10,4,15,0.01
2013-3-4,50.0,35.2,23.0,29.0,19.1,10.0,74,52,40,0.00,40.00,7,5,12,0.00
2013-3-5,44.0,37.6,32.0,33.0,29.1,23.0,98,73,45,0.00,40.00,11,6,29,0.00
2013-3-6,36.0,31.8,27.0,31.0,27.0,20.0,98,83,67,0.00,40.00,15,8,29,0.12
2013-3-7,43.0,31.4,23.0,26.0,20.5,14.0,95,67,31,0.00,40.00,9,4,15,0.01
2013-3-8,46.0,31.7,22.0,26.0,21.6,12.0,96,71,25,0.00,40.00,9,6,16,0.00
2013-3-9,53.0,37.0,22.0,23.0,20.4,16.0,92,56,26,0.00,40.00,6,4,11,0.00
2013-3-10,55.0,41.3,23.0,29.0,21.7,16.0,82,49,22,0.00,40.00,8,4,11,0.00
2013-3-11,59.0,42.2,28.0,36.0,29.8,25.0,91,65,31,0.00,40.00,7,4,12,0.00
2013-3-12,62.0,43.7,28.0,39.0,32.1,24.0,98,68,36,0.00,40.00,7,4,10,0.00
2013-3-13,60.0,45.1,32.0,35.0,30.0,25.0,79,57,38,0.00,40.00,7,3,10,0.00
2013-3-14,64.0,44.4,33.0,36.0,30.9,25.0,83,62,27,0.00,40.00,10,4,19,0.00
2013-3-15,59.0,44.2,31.0,34.0,30.9,28.0,88,63,33,0.00,40.00,10,5,19,0.00
2013-3-16,51.0,37.6,28.0,34.0,29.0,20.0,98,75,30,0.00,40.00,22,8,34,0.00
2013-3-17,44.0,35.2,27.0,28.0,22.3,18.0,83,61,38,0.00,40.00,22,8,34,0.00
2013-3-18,52.0,36.3,22.0,27.0,22.3,19.0,91,61,29,0.00,40.00,6,4,11,0.00
2013-3-19,54.0,40.0,30.0,42.0,28.4,15.0,94,65,43,0.00,40.00,8,5,19,0.10
2013-3-20,43.0,39.6,29.0,40.0,33.2,19.0,90,78,66,0.00,40.00,20,12,35,0.05
2013-3-21,39.0,30.5,25.0,20.0,17.6,15.0,72,59,43,0.00,40.00,12,7,20,0.01
2013-3-22,37.0,29.1,23.0,18.0,15.4,13.0,70,57,41,0.00,40.00,14,8,25,0.00
2013-3-23,48.0,30.3,15.0,22.0,15.9,12.0,86,59,28,0.00,40.00,8,4,13,0.00
2013-3-24,56.0,38.4,25.0,30.0,23.7,19.0,79,57,32,0.00,40.00,7,5,11,0.00
2013-3-25,59.0,42.7,31.0,37.0,27.5,24.0,83,58,30,0.00,40.00,9,6,18,0.00
2013-3-26,53.0,42.4,36.0,38.0,35.6,32.0,99,79,47,0.00,40.00,11,4,18,0.02
2013-3-27,58.0,41.9,33.0,41.0,33.7,31.0,98,77,36,0.00,40.00,9,5,19,0.02
2013-3-28,56.0,47.0,38.0,43.0,38.0,35.0,91,72,49,0.00,40.00,10,5,16,0.01
2013-3-29,63.0,46.7,34.0,40.0,35.1,31.0,98,69,31,0.00,40.00,7,5,14,0.01
2013-3-30,71.0,53.3,33.0,39.0,34.2,29.0,94,54,23,0.00,40.00,9,5,14,0.00
2013-3-31,55.0,47.1,41.0,44.0,37.4,29.0,97,70,44,0.00,40.00,13,6,21,0.22
2013-4-1,48.0,42.8,38.0,41.0,39.0,37.0,99,88,71,0.00,40.00,6,4,12,0.77
2013-4-2,56.0,41.5,31.0,42.0,37.6,31.0,100,88,59,0.00,40.00,8,4,13,0.01
2013-4-3,60.0,43.0,30.0,44.0,37.5,30.0,100,84,48,0.00,40.00,7,4,11,0.01
2013-4-4,56.0,48.4,43.0,43.0,38.6,34.0,85,69,54,0.00,40.00,16,8,32,0.03
2013-4-5,52.0,43.0,38.0,38.0,36.0,33.0,96,78,51,0.00,40.00,13,9,32,0.07
2013-4-6,49.0,40.9,36.0,38.0,36.0,33.0,96,83,57,0.00,40.00,17,9,30,0.21
2013-4-7,42.0,37.8,30.0,37.0,33.0,25.0,96,83,58,0.00,40.00,19,11,36,0.25
2013-4-8,44.0,34.8,26.0,28.0,23.9,19.0,92,65,51,0.00,40.00,19,11,31,0.03
2013-4-9,59.0,40.8,25.0,36.0,28.1,22.0,91,65,27,0.00,40.00,15,6,24,0.03
2013-4-10,56.0,44.6,34.0,44.0,37.1,29.0,96,76,60,0.00,40.00,15,7,27,0.00
2013-4-11,57.0,42.2,25.0,33.0,26.1,16.0,95,60,21,0.00,40.00,10,5,19,0.00
2013-4-12,62.0,44.7,27.0,36.0,27.1,15.0,93,57,19,0.00,40.00,15,8,25,0.00
2013-4-13,44.0,39.8,30.0,37.0,24.0,19.0,77,54,38,0.00,40.00,16,11,33,0.00
2013-4-14,42.0,31.9,21.0,23.0,19.2,15.0,88,62,36,0.00,40.00,12,6,21,0.00
2013-4-15,37.0,31.2,26.0,29.0,24.2,19.0,93,76,48,0.00,40.00,12,6,23,0.01
2013-4-16,41.0,32.0,25.0,34.0,24.3,20.0,84,73,55,0.00,40.00,17,6,29,0.07
2013-4-17,51.0,36.5,24.0,24.0,20.8,12.0,91,58,22,0.00,40.00,11,7,20,0.01
2013-4-18,60.0,43.2,27.0,38.0,29.2,22.0,82,60,36,0.00,40.00,10,5,18,0.00
2013-4-19,54.0,45.2,38.0,39.0,35.6,30.0,91,70,46,0.00,40.00,19,10,36,0.00
2013-4-20,61.0,44.4,27.0,36.0,30.1,19.0,97,63,25,0.00,40.00,14,6,21,0.00
2013-4-21,61.0,46.3,30.0,38.0,32.9,28.0,96,65,32,0.00,40.00,16,8,29,0.00
2013-4-22,58.0,44.6,31.0,37.0,23.7,9.0,96,53,15,0.00,40.00,10,7,21,0.00
2013-4-23,65.0,45.9,25.0,18.0,14.4,4.0,67,33,9,0.00,40.00,11,7,26,0.00
2013-4-24,68.0,49.3,30.0,18.0,15.0,5.0,51,28,8,0.00,40.00,8,6,20,0.00
2013-4-25,72.0,51.4,29.0,40.0,24.8,16.0,63,39,14,0.00,40.00,14,7,25,0.00
2013-4-26,75.0,56.4,34.0,40.0,32.0,25.0,89,46,17,0.00,40.00,9,6,19,0.00
2013-4-27,73.0,56.1,36.0,37.0,29.8,23.0,80,43,16,0.00,40.00,15,7,22,0.00
2013-4-28,65.0,54.5,42.0,33.0,28.8,21.0,59,38,27,0.00,40.00,14,6,21,0.00
2013-4-29,58.0,48.5,39.0,42.0,34.8,27.0,81,61,33,0.00,40.00,14,8,23,0.00
2013-4-30,57.0,40.6,27.0,29.0,17.0,-3.0,86,47,9,0.00,40.00,15,6,27,0.00
2013-5-1,65.0,44.9,26.0,20.0,15.1,9.0,71,37,11,0.00,40.00,8,6,18,0.00
2013-5-2,72.0,53.1,33.0,30.0,16.1,10.0,41,25,11,0.00,40.00,9,6,17,0.00
2013-5-3,75.0,57.6,42.0,27.0,21.8,11.0,47,28,10,0.00,40.00,11,7,23,0.00
2013-5-4,68.0,55.0,39.0,32.0,26.4,20.0,55,35,16,0.00,40.00,12,8,29,0.00
2013-5-5,68.0,54.7,42.0,44.0,34.3,30.0,62,48,27,0.00,40.00,12,6,20,0.01
2013-5-6,70.0,53.4,42.0,48.0,39.9,34.0,98,64,29,0.00,40.00,11,5,24,0.37
2013-5-7,64.0,50.5,42.0,51.0,46.8,42.0,100,89,54,0.00,40.00,10,4,20,0.20
2013-5-8,67.0,52.3,41.0,50.0,46.7,41.0,100,84,47,0.00,40.00,13,4,22,0.39
2013-5-9,74.0,57.3,42.0,53.0,45.2,39.0,100,69,30,0.00,40.00,12,5,20,0.01
2013-5-10,80.0,64.1,46.0,49.0,44.0,38.0,88,52,24,0.00,40.00,9,6,18,0.00
2013-5-11,82.0,65.3,49.0,53.0,47.8,39.0,91,58,22,0.00,40.00,9,5,16,0.00
2013-5-12,81.0,64.9,49.0,53.0,46.9,37.0,90,57,27,0.00,40.00,13,6,21,0.00
2013-5-13,69.0,57.2,43.0,45.0,39.8,31.0,88,55,36,0.00,40.00,23,9,35,0.00
2013-5-14,69.0,53.5,37.0,40.0,36.3,31.0,96,59,26,0.00,40.00,12,6,19,0.00
2013-5-15,65.0,50.3,39.0,42.0,38.5,36.0,95,67,35,0.00,40.00,16,7,25,0.00
2013-5-16,56.0,41.8,39.0,44.0,19.1,-99.9,96,81,47,0.00,40.00,12,5,22,0.28
2013-5-17,57.0,45.0,35.0,38.0,29.7,-99.9,97,67,41,0.00,40.00,13,6,24,0.12
2013-5-18,56.0,43.2,31.0,40.0,34.6,30.0,96,73,48,0.00,40.00,13,6,21,0.00
2013-5-19,66.0,48.2,30.0,38.0,33.7,29.0,97,62,33,0.00,40.00,12,6,18,0.00
2013-5-20,72.0,54.9,35.0,38.0,34.0,25.0,94,52,21,0.00,40.00,11,6,17,0.00
2013-5-21,54.0,43.1,28.0,42.0,32.2,24.0,95,68,36,0.00,40.00,21,10,39,0.03
2013-5-22,44.0,34.1,27.0,30.0,24.7,19.0,93,69,50,0.00,40.00,12,8,21,0.03
2013-5-23,51.0,40.3,30.0,32.0,27.9,25.0,92,64,36,0.00,40.00,14,6,22,0.01
2013-5-24,58.0,45.6,32.0,34.0,30.8,27.0,86,59,31,0.00,40.00,12,7,22,0.00
2013-5-25,63.0,47.7,29.0,41.0,31.5,26.0,96,59,30,0.00,40.00,12,6,21,0.01
2013-5-26,58.0,49.1,43.0,40.0,36.0,32.0,87,62,37,0.00,40.00,13,8,25,0.02
2013-5-27,56.0,45.9,42.0,47.0,41.7,36.0,95,86,73,0.00,40.00,14,6,26,0.58
2013-5-28,61.0,50.2,41.0,41.0,37.8,34.0,90,66,36,0.00,40.00,12,8,23,0.37
2013-5-29,56.0,48.6,43.0,42.0,36.3,32.0,89,64,42,0.00,40.00,24,12,39,0.06
2013-5-30,63.0,49.5,32.0,36.0,31.9,28.0,90,54,30,0.00,40.00,13,7,24,0.01
2013-5-31,72.0,52.2,32.0,37.0,31.7,1.0,96,54,7,0.00,40.00,12,6,18,0.00
2013-6-1,74.0,60.0,43.0,41.0,38.7,34.0,87,50,26,0.00,40.00,13,6,21,0.00
2013-6-2,75.0,59.5,41.0,45.0,36.3,28.0,96,49,18,0.00,40.00,9,6,19,0.00
2013-6-3,79.0,60.5,40.0,44.0,37.1,30.0,89,48,17,0.00,40.00,10,6,15,0.00
2013-6-4,83.0,66.0,47.0,47.0,40.6,34.0,77,44,18,0.00,40.00,8,6,15,0.00
2013-6-5,85.0,68.1,49.0,47.0,40.7,35.0,62,39,20,0.00,40.00,10,6,17,0.00
2013-6-6,85.0,67.3,49.0,53.0,46.0,38.0,85,52,20,0.00,40.00,11,6,18,0.00
2013-6-7,84.0,68.4,51.0,53.0,48.6,33.0,95,55,18,0.00,40.00,12,7,20,0.00
2013-6-8,88.0,69.3,50.0,51.0,41.7,31.0,82,44,16,0.00,40.00,11,6,17,0.00
2013-6-9,86.0,70.8,53.0,48.0,43.8,37.0,70,42,19,0.00,40.00,12,7,20,0.00
2013-6-10,78.0,64.9,53.0,45.0,36.3,28.0,69,38,20,0.00,40.00,15,8,28,0.00
2013-6-11,65.0,54.6,41.0,41.0,34.9,27.0,82,50,24,0.00,40.00,14,7,23,0.00
2013-6-12,63.0,49.5,32.0,34.0,32.0,30.0,94,56,29,0.00,40.00,13,7,22,0.00
2013-6-13,58.0,45.9,31.0,35.0,32.6,30.0,95,63,37,0.00,40.00,13,6,24,0.00
2013-6-14,71.0,51.7,31.0,36.0,30.3,25.0,96,52,18,0.00,40.00,9,5,16,0.00
2013-6-15,78.0,59.6,35.0,43.0,33.2,26.0,74,41,17,0.00,40.00,12,6,21,0.00
2013-6-16,76.0,62.2,45.0,48.0,41.7,34.0,90,52,22,0.00,40.00,14,7,24,0.00
2013-6-17,73.0,57.4,42.0,46.0,41.8,38.0,93,60,28,0.00,40.00,14,7,24,0.00
2013-6-18,62.0,52.3,43.0,42.0,37.4,28.0,86,60,29,0.00,40.00,16,7,25,0.00
2013-6-19,52.0,44.4,37.0,41.0,36.2,34.0,92,74,56,0.00,40.00,11,8,24,0.05
2013-6-20,58.0,42.5,31.0,36.0,34.3,31.0,98,76,41,0.00,40.00,8,4,14,0.04
2013-6-22,74.0,64.9,48.0,43.0,39.4,35.0,72,41,27,0.00,40.00,11,6,19,0.00
2013-6-23,65.0,55.9,50.0,54.0,48.3,41.0,95,77,53,0.00,40.00,18,4,36,0.21
2013-6-24,53.0,49.4,46.0,50.0,46.3,43.0,96,89,77,0.00,40.00,7,4,16,0.39
2013-6-25,58.0,53.2,48.0,51.0,47.0,44.0,91,80,68,0.00,40.00,12,6,32,0.09
2013-6-26,71.0,60.3,49.0,55.0,51.7,46.0,97,75,52,0.00,40.00,10,6,21,0.02
2013-6-27,84.0,65.7,49.0,54.0,50.6,47.0,96,64,30,0.00,40.00,8,4,14,0.01
2013-6-28,89.0,72.2,54.0,56.0,52.1,47.0,91,55,24,0.00,40.00,13,6,19,0.00
2013-6-29,86.0,72.3,56.0,57.0,52.2,44.0,94,55,24,0.00,40.00,12,5,20,0.00
2013-6-30,93.0,74.2,56.0,59.0,52.2,42.0,84,52,17,0.00,40.00,11,6,17,0.00
2013-7-1,92.0,77.4,61.0,63.0,55.6,49.0,85,51,26,0.00,40.00,10,5,17,0.00
2013-7-2,96.0,78.4,60.0,63.0,56.0,47.0,90,53,19,0.00,40.00,13,6,20,0.00
2013-7-3,92.0,76.9,62.0,61.0,54.2,46.0,79,49,21,0.00,40.00,13,6,22,0.00
2013-7-4,83.0,70.6,55.0,52.0,48.5,43.0,82,49,25,0.00,40.00,13,6,21,0.00
2013-7-5,83.0,66.2,48.0,47.0,39.8,27.0,72,42,15,0.00,40.00,12,7,18,0.00
2013-7-6,85.0,65.9,48.0,47.0,42.4,39.0,75,47,21,0.00,40.00,12,6,21,0.00
2013-7-7,85.0,69.4,50.0,51.0,45.9,42.0,80,46,28,0.00,40.00,11,6,18,0.00
2013-7-8,87.0,67.9,52.0,50.0,46.5,43.0,84,50,27,0.00,40.00,8,5,14,0.00
2013-7-9,89.0,73.2,54.0,47.0,41.6,28.0,74,39,11,0.00,40.00,9,6,18,0.00
2013-7-10,88.0,72.2,59.0,52.0,41.1,-99.9,63,38,14,0.00,40.00,12,6,18,0.00
2013-7-11,81.0,67.4,51.0,49.0,43.4,37.0,76,45,22,0.00,40.00,15,6,24,0.00
2013-7-12,77.0,60.8,46.0,45.0,38.3,33.0,77,47,22,0.00,40.00,14,6,26,0.00
2013-7-13,82.0,64.2,46.0,44.0,39.7,33.0,69,44,22,0.00,40.00,11,6,16,0.00
2013-7-14,87.0,70.3,52.0,46.0,35.4,27.0,45,30,13,0.00,40.00,9,6,16,0.00
2013-7-15,88.0,70.0,51.0,46.0,41.4,33.0,70,41,14,0.00,40.00,8,6,14,0.00
2013-7-16,85.0,77.6,64.0,49.0,38.4,26.0,58,29,12,0.00,40.00,10,8,23,0.00
2013-7-17,84.0,67.9,47.0,50.0,43.0,36.0,87,46,18,0.00,40.00,8,4,16,0.00
2013-7-18,89.0,70.8,51.0,50.0,44.0,32.0,76,43,13,0.00,40.00,10,6,17,0.00
2013-7-19,93.0,73.8,56.0,51.0,43.3,31.0,57,37,11,0.00,40.00,13,6,18,0.00
2013-7-20,95.0,71.9,55.0,49.0,41.4,-99.9,64,39,13,0.00,40.00,11,6,18,0.00
2013-7-21,96.0,73.9,52.0,45.0,39.6,29.0,64,34,10,0.00,40.00,13,6,19,0.00
2013-7-22,94.0,73.2,54.0,47.0,40.0,37.0,60,34,14,0.00,40.00,11,7,19,0.00
2013-7-23,93.0,71.0,54.0,51.0,43.5,38.0,68,41,15,0.00,40.00,14,6,24,0.00
2013-7-24,90.0,73.5,59.0,49.0,44.0,41.0,54,37,18,0.00,40.00,12,5,23,0.00
2013-7-25,94.0,78.5,61.0,50.0,44.8,40.0,56,33,16,0.00,40.00,9,6,17,0.00
2013-7-26,92.0,76.3,60.0,52.0,46.9,44.0,57,37,22,0.00,40.00,13,6,23,0.00
2013-7-27,87.0,71.1,54.0,50.0,42.2,30.0,77,42,14,0.00,40.00,11,7,20,0.00
2013-7-28,84.0,63.6,45.0,42.0,34.6,22.0,67,39,11,0.00,40.00,13,7,20,0.00
2013-7-29,84.0,63.1,45.0,43.0,38.3,33.0,71,44,20,0.00,40.00,13,7,24,0.00
2013-7-30,83.0,65.0,47.0,42.0,36.8,32.0,60,38,17,0.00,40.00,11,5,20,0.00
2013-7-31,83.0,66.2,53.0,52.0,43.9,38.0,97,47,20,0.00,40.00,9,5,17,0.19
2013-8-1,73.0,58.7,46.0,51.0,42.4,30.0,100,62,22,0.00,40.00,16,8,25,0.09
2013-8-2,76.0,55.0,36.0,44.0,38.5,28.0,97,62,17,0.00,40.00,10,6,18,0.01
2013-8-3,82.0,64.3,44.0,44.0,38.6,24.0,87,47,12,0.00,40.00,11,6,17,0.00
2013-8-4,87.0,68.1,51.0,45.0,41.8,30.0,73,43,13,0.00,40.00,10,5,18,0.00
2013-8-5,86.0,69.5,53.0,47.0,44.0,41.0,71,43,21,0.00,40.00,11,6,17,0.00
2013-8-6,89.0,70.2,50.0,50.0,44.9,34.0,78,45,14,0.00,40.00,8,6,15,0.00
2013-8-7,71.0,63.3,57.0,55.0,46.9,44.0,78,56,41,0.00,40.00,10,5,32,0.14
2013-8-8,76.0,60.8,46.0,46.0,42.5,38.0,87,56,27,0.00,40.00,8,5,16,0.05
2013-8-9,73.0,60.4,45.0,49.0,41.1,36.0,84,52,28,0.00,40.00,8,4,16,0.00
2013-8-10,72.0,60.1,45.0,50.0,44.4,36.0,86,59,28,0.00,40.00,11,5,18,0.00
2013-8-11,78.0,62.4,44.0,47.0,42.9,33.0,91,54,20,0.00,40.00,10,6,18,0.00
2013-8-12,81.0,64.5,47.0,49.0,44.7,40.0,92,53,23,0.00,40.00,12,6,21,0.00
2013-8-13,86.0,66.2,47.0,48.0,41.9,-99.9,86,49,16,0.00,40.00,10,6,18,0.00
2013-8-14,87.0,67.3,50.0,52.0,42.7,-99.9,87,48,16,0.00,40.00,12,5,17,0.00
2013-8-15,87.0,60.6,47.0,47.0,28.1,-99.9,71,41,16,0.00,40.00,13,5,20,0.00
2013-8-16,85.0,66.3,51.0,52.0,44.8,-99.9,81,53,24,0.00,40.00,12,6,18,0.00
2013-8-17,85.0,69.1,53.0,57.0,50.5,48.0,91,56,29,0.00,40.00,12,6,23,0.00
2013-8-18,90.0,69.7,49.0,52.0,46.5,37.0,92,51,16,0.00,40.00,12,6,18,0.00
2013-8-21,89.0,73.4,57.0,49.0,35.2,25.0,43,26,15,0.00,40.00,8,5,16,0.00
2013-8-22,75.0,59.9,48.0,52.0,48.5,45.0,98,69,41,0.00,40.00,9,4,47,0.10
2013-8-23,78.0,59.2,41.0,54.0,45.5,41.0,100,68,28,0.00,40.00,10,5,16,0.01
2013-8-24,78.0,60.5,47.0,52.0,47.7,40.0,97,68,26,0.00,40.00,9,4,18,0.03
2013-8-25,71.0,55.5,51.0,52.0,50.0,46.0,98,83,42,0.00,40.00,20,5,35,0.29
2013-8-26,73.0,58.1,46.0,54.0,46.8,39.0,100,72,30,0.00,40.00,13,6,22,0.12
2013-8-27,70.0,50.0,41.0,46.0,42.8,40.0,96,79,42,0.00,40.00,7,5,11,0.01
2013-8-28,82.0,73.0,60.0,49.0,41.0,34.0,66,35,20,0.00,40.00,10,7,19,0.00
2013-8-29,78.0,65.6,53.0,51.0,45.0,41.0,77,50,28,0.00,40.00,14,6,26,0.00
2013-8-30,83.0,64.7,45.0,52.0,45.4,32.0,97,57,16,0.00,40.00,9,5,15,0.00
2013-8-31,87.0,67.7,50.0,53.0,45.2,41.0,86,51,21,0.00,40.00,9,6,16,0.00
2013-9-1,88.0,67.0,52.0,50.0,39.8,25.0,73,43,11,0.00,40.00,13,5,26,0.00
2013-9-2,80.0,64.3,48.0,48.0,42.4,33.0,78,51,20,0.00,40.00,10,6,20,0.00
2013-9-3,79.0,60.9,44.0,48.0,41.6,32.0,97,58,19,0.00,40.00,11,6,20,0.00
2013-9-4,80.0,60.1,42.0,49.0,42.6,35.0,94,59,20,0.00,40.00,12,6,21,0.00
2013-9-5,68.0,53.8,45.0,52.0,45.2,40.0,98,75,44,0.00,40.00,14,6,32,0.10
2013-9-6,73.0,55.0,37.0,47.0,42.0,36.0,98,67,34,0.00,40.00,9,4,16,0.01
2013-9-7,82.0,62.5,45.0,50.0,43.7,31.0,95,58,16,0.00,40.00,9,6,15,0.00
2013-9-17,55.0,50.4,45.0,50.0,43.3,36.0,98,77,62,0.00,40.00,17,6,28,0.26
2013-9-18,51.0,43.0,36.0,39.0,36.4,33.0,98,79,54,0.00,40.00,5,2,7,0.26
2013-9-19,78.0,53.7,33.0,35.0,30.9,21.0,89,50,12,0.00,40.00,8,6,13,0.00
2013-9-20,75.0,51.4,36.0,46.0,32.8,25.0,99,55,18,0.00,40.00,18,7,34,0.22
2013-9-21,54.0,45.9,41.0,47.0,42.7,38.0,100,89,67,0.00,40.00,9,4,16,0.14
2013-9-22,54.0,46.7,40.0,46.0,41.0,37.0,94,81,64,0.00,40.00,17,8,29,0.09
2013-9-23,66.0,53.8,46.0,46.0,43.9,41.0,89,71,43,0.00,40.00,15,9,24,0.00
2013-9-24,49.0,44.4,38.0,41.0,38.8,36.0,94,81,63,0.00,40.00,12,6,22,0.26
2013-9-25,49.0,39.7,33.0,36.0,32.5,30.0,98,77,48,0.00,40.00,12,8,22,0.06
2013-9-26,52.0,38.8,27.0,32.0,29.7,26.0,98,73,41,0.00,40.00,13,5,22,0.01
2013-9-27,61.0,43.1,27.0,35.0,28.8,21.0,97,63,27,0.00,40.00,11,6,17,0.00
2013-9-28,60.0,53.5,46.0,41.0,36.5,31.0,81,53,42,0.00,40.00,16,9,33,0.01
2013-9-29,52.0,49.1,45.0,49.0,46.3,42.0,99,91,68,0.00,40.00,20,12,36,1.32
2013-9-30,52.0,46.4,41.0,48.0,37.7,31.0,97,74,47,0.00,40.00,17,12,34,0.35
2013-10-3,54.0,39.6,28.0,32.0,27.1,23.0,96,65,31,0.00,40.00,9,5,23,0.00
2013-10-4,62.0,43.4,29.0,30.0,26.6,23.0,89,57,24,0.00,40.00,7,5,14,0.00
2013-10-5,69.0,46.3,26.0,29.0,24.9,22.0,84,48,20,0.00,40.00,8,6,12,0.00
2013-10-6,73.0,49.6,30.0,33.0,27.3,23.0,83,48,16,0.00,40.00,10,6,18,0.00
2013-10-7,57.0,43.4,33.0,35.0,29.7,26.0,85,61,31,0.00,40.00,15,6,25,0.00
2013-10-8,53.0,38.2,27.0,34.0,30.3,26.0,97,76,42,0.00,40.00,13,5,22,0.00
2013-10-9,51.0,39.1,30.0,32.0,28.7,26.0,96,69,39,0.00,40.00,10,7,24,0.00
2013-10-17,67.0,46.3,29.0,35.0,29.0,23.0,85,54,27,0.00,40.00,8,5,15,0.00
2013-10-18,67.0,47.5,30.0,32.0,28.9,26.0,87,53,24,0.00,40.00,7,5,13,0.00
2013-10-19,70.0,47.3,28.0,33.0,28.7,25.0,88,54,23,0.00,40.00,7,5,12,0.00
2013-10-20,72.0,47.6,30.0,32.0,27.7,21.0,84,53,15,0.00,40.00,9,6,15,0.00
2013-10-21,72.0,52.2,36.0,35.0,30.9,27.0,73,47,25,0.00,40.00,7,5,12,0.00
2013-10-22,71.0,50.5,34.0,34.0,30.1,26.0,73,49,24,0.00,40.00,8,5,13,0.00
2013-10-23,72.0,48.1,31.0,35.0,30.1,22.0,88,55,18,0.00,40.00,7,5,13,0.00
2013-10-24,71.0,50.7,35.0,35.0,30.4,25.0,81,50,22,0.00,40.00,8,4,14,0.00
2013-10-25,69.0,47.1,30.0,34.0,29.7,26.0,85,55,25,0.00,40.00,8,5,10,0.00
2013-10-26,70.0,46.4,29.0,35.0,28.5,23.0,89,56,20,0.00,40.00,10,5,14,0.00
2013-10-27,55.0,39.4,31.0,37.0,27.9,23.0,92,66,31,0.00,40.00,17,8,38,0.00
2013-10-28,36.0,33.1,30.0,34.0,26.5,-99.9,97,81,66,0.00,40.00,12,7,25,0.06
2013-10-29,50.0,34.4,23.0,32.0,23.2,18.0,89,66,40,0.00,40.00,6,4,13,0.01
2013-10-30,55.0,36.9,22.0,34.0,29.2,21.0,96,76,45,0.00,40.00,6,4,11,0.00
2013-10-31,59.0,42.4,28.0,40.0,33.7,27.0,97,74,49,0.00,40.00,5,4,12,0.00
2013-11-1,60.0,41.2,27.0,39.0,33.2,26.0,99,77,40,0.00,40.00,7,4,11,0.00
2013-11-2,46.0,37.8,30.0,38.0,32.2,23.0,96,81,52,0.00,40.00,16,8,29,0.04
2013-11-3,39.0,32.1,27.0,30.0,24.8,23.0,87,75,56,0.00,40.00,12,6,20,0.01
2013-11-4,47.0,33.6,24.0,29.0,25.2,22.0,94,73,49,0.00,40.00,9,4,16,0.00
2013-11-5,44.0,37.3,29.0,42.0,34.8,26.0,99,91,81,0.00,40.00,6,3,10,0.06
2013-11-6,56.0,44.7,38.0,44.0,41.8,38.0,99,91,63,0.00,40.00,5,2,10,0.01
2013-11-7,52.0,45.3,39.0,42.0,38.9,33.0,99,79,58,0.00,40.00,19,10,34,0.02
2013-11-8,51.0,36.3,28.0,34.0,24.4,13.0,96,67,22,0.00,40.00,6,4,11,0.01
2013-11-9,58.0,38.5,23.0,32.0,25.3,18.0,83,61,36,0.00,40.00,6,3,9,0.00
2013-11-10,59.0,42.8,31.0,36.0,31.8,27.0,93,68,39,0.00,40.00,5,3,7,0.00
2013-11-11,60.0,41.3,30.0,32.0,24.9,20.0,82,56,21,0.00,40.00,7,4,10,0.00
2013-11-12,54.0,48.8,45.0,41.0,32.1,21.0,78,54,33,0.00,40.00,5,2,8,0.00
2013-11-13,59.0,43.7,32.0,42.0,30.9,14.0,99,68,17,0.00,40.00,7,5,13,0.00
2013-11-14,52.0,34.7,23.0,29.0,22.6,18.0,80,63,35,0.00,40.00,11,5,19,0.00
2013-11-15,45.0,31.8,22.0,27.0,23.6,20.0,94,73,49,0.00,40.00,12,5,25,0.00
2013-11-16,43.0,37.2,33.0,31.0,28.8,25.0,91,72,58,0.00,40.00,23,11,39,0.00
2013-11-17,49.0,35.9,26.0,31.0,27.3,24.0,93,72,48,0.00,40.00,8,4,15,0.00
2013-11-18,44.0,36.6,29.0,37.0,29.6,24.0,94,76,58,0.00,40.00,10,5,20,0.07
2013-11-19,43.0,40.6,38.0,41.0,38.4,37.0,96,92,82,0.00,40.00,10,7,20,0.39
2013-11-20,39.0,33.7,22.0,38.0,28.5,11.0,99,82,55,0.00,40.00,12,6,23,0.12
2013-11-21,42.0,26.0,12.0,7.0,-1.3,-7.0,55,32,15,0.00,40.00,11,7,22,0.01
2013-11-22,49.0,29.9,15.0,7.0,3.9,1.0,54,35,17,0.00,40.00,10,7,17,0.00
2013-11-23,54.0,35.6,25.0,14.0,10.1,6.0,49,35,20,0.00,40.00,9,6,17,0.00
2013-11-24,51.0,31.7,18.0,18.0,13.1,11.0,75,49,22,0.00,40.00,8,4,12,0.00
2013-11-25,54.0,32.2,19.0,19.0,13.4,11.0,74,49,20,0.00,40.00,8,5,11,0.00
2013-11-26,49.0,34.1,23.0,21.0,17.0,13.0,68,51,32,0.00,40.00,6,4,10,0.00
2013-11-27,50.0,33.8,26.0,25.0,21.4,19.0,76,62,36,0.00,40.00,7,4,11,0.00
2013-11-28,58.0,36.5,26.0,28.0,23.4,21.0,83,62,30,0.00,40.00,8,5,13,0.00
2013-11-29,53.0,37.0,24.0,27.0,23.7,20.0,84,60,35,0.00,40.00,8,5,12,0.00
2013-11-30,55.0,40.8,29.0,36.0,31.9,25.0,92,72,48,0.00,40.00,5,2,8,0.00
2013-12-1,50.0,43.4,34.0,41.0,34.3,27.0,94,72,44,0.00,40.00,14,8,34,0.00
2013-12-2,46.0,37.9,26.0,39.0,31.0,17.0,96,76,58,0.00,40.00,25,8,39,0.14
2013-12-3,28.0,20.6,9.0,16.0,11.3,2.0,87,67,52,0.00,40.00,11,6,22,0.05
2013-12-12,31.0,20.3,10.0,27.0,17.1,6.0,94,87,77,0.00,40.00,4,2,10,0.04
2013-12-13,43.0,29.6,23.0,32.0,26.7,22.0,98,89,65,0.00,40.00,6,2,10,0.00
2013-12-14,43.0,25.1,15.0,29.0,21.6,12.0,97,87,57,0.00,40.00,5,3,7,0.00
2013-12-15,39.0,27.0,18.0,26.0,22.0,16.0,97,83,57,0.00,40.00,5,3,7,0.01
2013-12-16,46.0,28.7,17.0,27.0,21.1,15.0,93,75,47,0.00,40.00,7,4,10,0.01
2013-12-17,46.0,30.3,20.0,25.0,21.2,17.0,90,71,43,0.00,40.00,6,4,9,0.00
2013-12-18,36.0,28.7,19.0,27.0,22.1,16.0,92,77,62,0.00,40.00,7,4,18,0.00
2013-12-19,35.0,25.9,19.0,26.0,12.3,3.0,90,59,30,0.00,40.00,9,6,24,0.00
2013-12-20,40.0,27.0,13.0,36.0,17.2,3.0,87,67,47,0.00,40.00,8,4,16,0.00
2013-12-21,49.0,38.9,29.0,35.0,31.2,25.0,89,75,51,0.00,40.00,11,5,17,0.00
2013-12-22,51.0,37.1,29.0,36.0,30.2,25.0,94,78,48,0.00,40.00,10,4,15,0.00
2013-12-23,44.0,36.0,27.0,39.0,31.6,26.0,96,84,65,0.00,40.00,7,3,13,0.00
2013-12-24,47.0,33.0,22.0,32.0,27.6,19.0,96,82,53,0.00,40.00,7,4,11,0.00
2013-12-25,48.0,28.4,15.0,28.0,21.1,12.0,93,76,43,0.00,40.00,7,4,9,0.01
2013-12-26,49.0,32.4,20.0,26.0,21.3,16.0,92,67,37,0.00,40.00,6,4,8,0.01
2013-12-28,47.0,31.2,21.0,24.0,15.7,9.0,86,58,24,0.00,40.00,8,4,12,0.00
2013-12-29,45.0,28.5,17.0,19.0,12.5,8.0,69,52,32,0.00,40.00,9,4,14,0.00
2013-12-30,39.0,29.3,21.0,19.0,15.6,12.0,72,57,43,0.00,40.00,6,3,9,0.00
2013-12-31,52.0,35.3,27.0,22.0,18.4,15.0,68,52,31,0.00,40.00,7,3,10,0.00
2014-1-1,49.0,33.1,22.0,26.0,20.8,17.0,81,62,37,0.00,40.00,7,4,12,0.00
2014-1-2,49.0,34.2,24.0,28.0,24.1,21.0,91,69,43,0.00,40.00,8,4,11,0.00